This demonstration page uses our WeatherBlox Daily Observations layout. Learn more.

Hourly Observations for September 3, 2015

Temp ( °F °C ) Dew Point ( °F °C ) Humidity (%) Winds ( mph kmh ) Pressure ( in mb ) Visibility ( mi km ) Precip ( " mm )
12:15 am 00:15 Clear 70 21.3 61 16.1 72 72 SE 5 7 29.77 1008 10 16.0934 0 0
12:35 am 00:35 Clear 70 21.1 61 16 73 73 SE 5 7 29.77 1008 10 16.0934 0 0
12:55 am 00:55 Clear 69 20.4 61 16 76 76 SE 6 9 29.77 1008 10 16.0934 0 0
1:15 am 01:15 Clear 69 20.8 61 16 74 74 SSE 6 9 29.77 1008 10 16.0934 0 0
1:35 am 01:35 Clear 71 21.6 60 15.5 68 68 SSE 8 13 29.74 1007 10 16.0934 0 0
1:55 am 01:55 Clear 71 21.5 60 15.5 69 69 SSE 7 11 29.74 1007 10 16.0934 0 0
2:15 am 02:15 Clear 71 21.8 60 15.5 68 68 S 9 15 29.74 1007 10 16.0934 0 0
2:35 am 02:35 Clear 71 21.8 60 15.3 67 67 S 7 11 29.71 1006 10 16.0934 0 0
2:55 am 02:55 Clear 70 21.2 60 15.5 70 70 SSE 7 11 29.74 1007 10 16.0934 0 0
3:15 am 03:15 Clear 71 21.5 60 15.3 68 68 SSE 7 11 29.71 1006 10 16.0934 0 0
3:35 am 03:35 Clear 70 20.9 60 15.3 70 70 S 5 7 29.74 1007 10 16.0934 0 0
3:55 am 03:55 Clear 70 21 59 15.2 70 70 S 7 11 29.74 1007 10 16.0934 0 0
4:15 am 04:15 Clear 69 20.5 60 15.4 73 73 S 7 11 29.74 1007 10 16.0934 0 0
4:35 am 04:35 Clear 68 20.2 60 15.3 74 74 S 8 13 29.74 1007 10 16.0934 0 0
4:55 am 04:55 Clear 69 20.5 59 15.2 72 72 S 7 11 29.74 1007 10 16.0934 0 0
5:15 am 05:15 Clear 69 20.4 59 15.2 72 72 SSE 8 13 29.74 1007 10 16.0934 0 0
5:35 am 05:35 Clear 69 20.3 59 15.2 73 73 SSE 8 13 29.74 1007 10 16.0934 0 0
5:55 am 05:55 Clear 68 19.8 60 15.3 75 75 SSE 6 9 29.74 1007 10 16.0934 0 0
6:15 am 06:15 Clear 67 19.5 60 15.3 77 77 SSE 6 9 29.74 1007 10 16.0934 0 0
6:35 am 06:35 Clear 67 19.4 59 15.2 77 77 SSE 6 9 29.74 1007 10 16.0934 0 0
6:55 am 06:55 Clear 67 19.4 60 15.3 77 77 SSE 6 9 29.74 1007 10 16.0934 0 0
7:15 am 07:15 Sunny 67 19.6 60 15.3 76 76 S 6 9 29.74 1007 10 16.0934 0 0
7:35 am 07:35 Sunny 68 20.1 59 15.2 74 74 S 8 13 29.74 1007 10 16.0934 0 0
7:55 am 07:55 Sunny 69 20.5 59 15.2 72 72 S 9 15 29.74 1007 10 16.0934 0 0
8:15 am 08:15 Sunny 70 21.3 60 15.4 69 69 S 12 19 29.74 1007 10 16.0934 0 0
8:35 am 08:35 Sunny 72 22.2 60 15.3 65 65 S 12 19 29.71 1006 10 16.0934 0 0
8:55 am 08:55 Sunny 74 23.1 60 15.3 62 62 S 10 17 29.71 1006 10 16.0934 0 0
9:15 am 09:15 Sunny 74 23.6 60 15.4 60 60 S 10 17 29.71 1006 10 16.0934 0 0
9:35 am 09:35 Sunny 76 24.7 59 15.2 56 56 S 14 22 29.68 1005 10 16.0934 0 0
9:55 am 09:55 Sunny 78 25.8 59 15 51 51 S 14 22 29.68 1005 10 16.0934 0 0
10:15 am 10:15 Sunny 80 26.5 59 15 49 49 S 13 20 29.68 1005 10 16.0934 0 0
10:35 am 10:35 Sunny 80 26.9 59 15.1 48 48 S 12 19 29.68 1005 10 16.0934 0 0
10:55 am 10:55 Sunny 81 27.3 59 15 47 47 S 12 19 29.68 1005 10 16.0934 0 0
11:15 am 11:15 Sunny 82 28 59 14.8 45 45 S 12 19 29.68 1005 10 16.0934 0 0
11:35 am 11:35 Sunny 82 28 59 15 45 45 S 10 17 29.68 1005 10 16.0934 0 0
11:55 am 11:55 Sunny 85 29.2 60 15.3 43 43 SSE 12 19 29.65 1004 10 16.0934 0 0
12:15 pm 12:15 Sunny 85 29.6 59 15 41 41 S 12 19 29.65 1004 10 16.0934 0 0
12:35 pm 12:35 Sunny 86 30.2 60 15.6 41 41 SSE 10 17 29.65 1004 10 16.0934 0 0
12:55 pm 12:55 Sunny 87 30.4 59 15.2 40 40 SSE 12 19 29.65 1004 10 16.0934 0 0
1:15 pm 13:15 Sunny 88 31.2 59 15.1 38 38 SSE 13 20 29.65 1004 10 16.0934 0 0
1:35 pm 13:35 Sunny 89 31.5 57 14.1 35 35 S 13 20 29.65 1004 10 16.0934 0 0
1:55 pm 13:55 Sunny 90 32.3 58 14.5 34 34 SSE 15 24 29.62 1003 10 16.0934 0 0
2:15 pm 14:15 Sunny 90 32.3 58 14.2 33 33 S 12 19 29.62 1003 10 16.0934 0 0
2:35 pm 14:35 Sunny 92 33.3 57 14 31 31 S 15 24 29.59 1002 10 16.0934 0 0
2:55 pm 14:55 Sunny 92 33.6 57 13.7 30 30 SSE 14 22 29.59 1002 10 16.0934 0 0
3:15 pm 15:15 Sunny 94 34.5 57 14.1 29 29 S 14 22 29.59 1002 10 16.0934 0 0
3:35 pm 15:35 Sunny 94 34.5 56 13.6 28 28 S 17 28 29.59 1002 10 16.0934 0 0
3:55 pm 15:55 Sunny 95 35 55 13 26 26 S 16 26 29.59 1002 10 16.0934 0 0
4:15 pm 16:15 Sunny 95 35.2 56 13.6 27 27 S 12 19 29.59 1002 10 16.0934 0 0
4:35 pm 16:35 Sunny 96 35.7 56 13.5 26 26 SSE 12 19 29.59 1002 10 16.0934 0 0
4:55 pm 16:55 Sunny 95 35.1 55 13 26 26 S 10 17 29.59 1002 10 16.0934 0 0
5:15 pm 17:15 Sunny 96 35.5 56 13.2 26 26 S 10 17 29.59 1002 10 16.0934 0 0
5:35 pm 17:35 Sunny 96 35.5 55 12.7 25 25 SSE 18 30 29.53 1000 10 16.0934 0 0
5:55 pm 17:55 Sunny 94 34.4 56 13.2 28 28 S 15 24 29.56 1001 10 16.0934 0 0
6:15 pm 18:15 Sunny 93 33.7 56 13.1 29 29 SSE 15 24 29.56 1001 10 16.0934 0 0
6:35 pm 18:35 Sunny 91 32.6 57 13.8 32 32 SSE 12 19 29.56 1001 10 16.0934 0 0
6:55 pm 18:55 Sunny 89 31.6 57 14.1 34 34 SSE 10 17 29.56 1001 10 16.0934 0 0
7:15 pm 19:15 Sunny 88 31 58 14.2 36 36 SSE 9 15 29.62 1003 10 16.0934 0 0
7:35 pm 19:35 Sunny 88 30.9 56 13.2 34 34 SSE 10 17 29.62 1003 10 16.0934 0 0
7:55 pm 19:55 Sunny 87 30.3 56 13.2 35 35 S 12 19 29.62 1003 10 16.0934 0 0
8:15 pm 20:15 Clear 85 29.4 56 13.6 38 38 S 9 15 29.62 1003 10 16.0934 0 0
8:35 pm 20:35 Clear 83 28.4 57 13.9 41 41 SSE 8 13 29.65 1004 10 16.0934 0 0
8:55 pm 20:55 Clear 82 27.8 57 13.8 42 42 SSE 8 13 29.65 1004 10 16.0934 0 0
9:15 pm 21:15 Clear 82 27.7 57 14 43 43 SSE 7 11 29.65 1004 10 16.0934 0 0
9:35 pm 21:35 Clear 80 26.6 58 14.5 47 47 SSE 7 11 29.65 1004 10 16.0934 0 0
9:55 pm 21:55 Clear 79 26.2 58 14.6 49 49 SSE 8 13 29.65 1004 10 16.0934 0 0
10:15 pm 22:15 Clear 78 25.8 58 14.7 50 50 SSE 10 17 29.65 1004 10 16.0934 0 0
10:35 pm 22:35 Clear 79 26.3 58 14.6 49 49 SSE 12 19 29.65 1004 10 16.0934 0 0
10:55 pm 22:55 Clear 80 26.4 58 14.7 49 49 SSE 9 15 29.65 1004 10 16.0934 0 0
11:15 pm 23:15 Clear 79 26 59 14.9 50 50 SSE 10 17 29.65 1004 10 16.0934 0 0
11:35 pm 23:35 Clear 79 26 59 15 51 51 SSE 12 19 29.65 1004 10 16.0934 0 0
11:55 pm 23:55 Clear 79 26 59 15.1 51 51 SE 12 19 29.65 1004 10 16.0934 0 0

Powered by AerisWeather